Regional Weather Roundup
Issued by NWS

Home | Current Version | Previous Version | Text Only | Print | Product List | Glossary On
Versions: 1 2 3 4 5 6 7 8 9 10 11 12 13 14 15 16 17 18 19 20 21 22 23 24 25 26 27 28 29 30 31 32 33 34 35 36 37 38 39 40 41 42 43 44 45 46 47 48 49 50
000
ASUS44 KMEG 292010
RWRTN
TENNESSEE HOURLY STATE WEATHER ROUNDUP
NATIONAL WEATHER SERVICE MEMPHIS TN
300 PM CDT WED JUL 29 2015

TNZ002-004-019-021-049-052-054-088>092-292100-
WEST TENNESSEE

CITY           SKY/WX    TMP DP  RH WIND       PRES   REMARKS
MEMPHIS INTL   PTSUNNY   99  75  46 NW9       29.99F HX 112
NWS MEMPHIS      N/A     97 N/A N/A MISG        N/A
JACKSON        SUNNY     98  75  47 NW9       29.98F HX 110
DYERSBURG        N/A    N/A N/A N/A MISG        N/A
PARIS          MOSUNNY   91  79  66 CALM      29.99F HX 107
LEXINGTON      MOSUNNY   95  75  52 CALM      29.98F HX 107
$$

TNZ008-025-027-028-033-062-065-066-292100-
NORTH MIDDLE TENNESSEE

CITY           SKY/WX    TMP DP  RH WIND       PRES   REMARKS
NASHVILLE      PTSUNNY   93  76  57 CALM      29.99F HX 105
CLARKSVILLE    MOSUNNY   90  79  70 SW6       29.99F HX 106
SMYRNA         MOSUNNY   99  77  49 VRB5      29.99F HX 114
CROSSVILLE     MOSUNNY   88  71  57 NW8       30.05F HX  94
$$

TNZ061-075-076-078-094-096-097-292100-
SOUTH MIDDLE TENNESSEE

CITY           SKY/WX    TMP DP  RH WIND       PRES   REMARKS
FAYETTEVILLE   MOSUNNY   86  72  62 NW7       30.01F HX  92
TULLAHOMA      MOSUNNY   88  73  62 N5        30.03F HX  96
WINCHESTER     MOSUNNY   90  75  62 NW7       30.01F HX 100
MCMINNVILLE    SUNNY     90  79  70 VRB6      30.01F HX 105
COLUMBIA       SUNNY     88  79  74 CALM      30.00F HX 102
SHELBYVILLE    MOSUNNY   91  79  66 W6        30.01F HX 107
$$

TNZ017-018-042-046-047-292100-
NORTHEAST TENNESSEE

CITY           SKY/WX    TMP DP  RH WIND       PRES   REMARKS
TRI CITIES     MOSUNNY   90  70  51 W7        30.01F HX  95
ELIZABETHTON   CLEAR     88  68  51 W3        30.02F HX  91
$$

TNZ012-013-036-069-073-074-292100-
CENTRAL EAST TENNESSEE

CITY           SKY/WX    TMP DP  RH WIND       PRES   REMARKS
KNOXVILLE      PTSUNNY   90  71  53 VRB3      29.98F HX  96
OAK RIDGE      PTSUNNY   90  71  53 CALM      30.00F HX  96
GATLINBURG       N/A     90  70  51 CALM      29.98F HX  95
MORRISTOWN     CLEAR     90  73  58 NW7       30.02F HX  98
$$

TNZ083-085-099-292100-
SOUTHEAST TENNESSEE

CITY           SKY/WX    TMP DP  RH WIND       PRES   REMARKS
CHATTANOOGA    MOSUNNY   94  73  50 NE6       29.97F HX 103
$$

SKY/WX REPORTED AS FAIR MEANS FEW OR NO CLOUDS BELOW
12 THOUSAND FEET.



USA.gov is the U.S. government's official web portal to all federal, state and local government web resources and services.